This is the latest recevied weather packets stored in our database for station/object W1NHD. If no packets are shown the sender has not sent any weather packets the latest 10 day(s).
| Time | Temp. | Humidity | Pressure | Rain* | Wind** | Luminosity | Snow |
|---|---|---|---|---|---|---|---|
| 1777625458 | 8.33° C | 92% | 1007.7 hPa | 0 mm | - | - | - |
| 1777624818 | 8.33° C | 92% | 1007.6 hPa | 0 mm | - | - | - |
| 1777618218 | 8.33° C | 99% | 1007 hPa | 0 mm | - | - | - |
| 1777616417 | 8.89° C | 99% | 1007.1 hPa | 0 mm | - | - | - |
| 1777612238 | 8.33° C | 99% | - | 0 mm | - | - | - |
| 1777609217 | 8.33° C | 99% | 1006.7 hPa | 0 mm | - | - | - |
| 1777608617 | 8.33° C | 99% | 1006.7 hPa | 0 mm | - | - | - |
| 1777600860 | 7.78° C | 98% | 1006.8 hPa | 0 mm | - | - | - |
| 1777596018 | 8.33° C | 98% | 1006.6 hPa | 0 mm | - | - | - |
| 1777593017 | 8.89° C | 97% | 1006.1 hPa | 0 mm | - | - | - |
| 1777588817 | 9.44° C | 97% | 1005.6 hPa | 0 mm | - | - | - |
| 1777587037 | 9.44° C | 98% | 1005.4 hPa | 0 mm | - | - | - |
| 1777585237 | 9.44° C | 98% | 1005.3 hPa | 0 mm | - | - | - |
| 1777581618 | 9.44° C | 98% | 1005.2 hPa | 0 mm | - | - | - |
| 1777577417 | 10.56° C | 99% | 1005.5 hPa | 0 mm | - | - | - |
| 1777568417 | 10° C | 99% | 1006.8 hPa | 0.25 mm | - | - | - |
| 1777566617 | 9.44° C | 99% | 1006.8 hPa | 0.25 mm | - | - | - |
| 1777566017 | 9.44° C | 99% | 1006.4 hPa | 0.25 mm | - | - | - |
| 1777561818 | 8.89° C | 99% | 1007 hPa | 0.25 mm | - | - | - |
| 1777559416 | 8.33° C | 99% | 1007.5 hPa | 0 mm | - | - | - |
| 1777558216 | 8.33° C | 99% | 1007.8 hPa | 0 mm | - | - | - |
| 1777556416 | 8.33° C | 99% | 1007.8 hPa | 0 mm | - | - | - |
| 1777555816 | 8.33° C | 99% | 1007.8 hPa | 0 mm | - | - | - |
| 1777555216 | 8.33° C | 99% | 1007.8 hPa | 0 mm | - | - | - |
| 1777554016 | 8.33° C | 99% | 1007.8 hPa | 0 mm | - | - | - |
* Rain latest hour (hover to see other rain measurements)
** Current wind speed in m/s (hover to see current wind gust speed)